PTOGG SBFZ-SBTE

Flight info

Callsign PTOGG
Flight time 1h 44m
Altitude 10000
Route PUBOR DCT DOSVA DCT EREJO
Aircraft C208/L-SDFGR/C

Departure

Time 2026-04-26 17:47
Airport Pinto Martins International Airport (SBFZ)

Arrival

Time 2026-04-26 19:32
Airport Senador Petrônio Portela Airport (SBTE)
Time Latitude Longitude Altitude Speed Heading
2026-04-26 17:26 -3.77290 -38.53711 90 ft 0 kts 14°
2026-04-26 17:28 -3.77291 -38.53711 90 ft 0 kts 14°
2026-04-26 17:40 -3.77289 -38.53710 92 ft 1 kts 38°
2026-04-26 17:40 -3.77291 -38.53705 91 ft 2 kts 154°
2026-04-26 17:40 -3.77338 -38.53734 92 ft 9 kts 250°
2026-04-26 17:40 -3.77323 -38.53826 90 ft 18 kts 285°
2026-04-26 17:41 -3.77281 -38.53972 90 ft 22 kts 286°
2026-04-26 17:41 -3.77250 -38.54086 92 ft 12 kts 284°
2026-04-26 17:41 -3.77241 -38.54124 90 ft 0 kts 274°
2026-04-26 17:44 -3.77241 -38.54132 90 ft 4 kts 271°
2026-04-26 17:45 -3.77240 -38.54197 90 ft 15 kts 270°
2026-04-26 17:45 -3.77252 -38.54331 93 ft 22 kts 227°
2026-04-26 17:45 -3.77358 -38.54291 93 ft 19 kts 106°
2026-04-26 17:45 -3.77393 -38.54159 93 ft 21 kts 105°
2026-04-26 17:46 -3.77464 -38.53903 91 ft 58 kts 104°
2026-04-26 17:46 -3.77598 -38.53402 110 ft 87 kts 105°
2026-04-26 17:46 -3.77781 -38.52769 211 ft 99 kts 105°
2026-04-26 17:46 -3.77982 -38.52078 348 ft 110 kts 107°
2026-04-26 17:47 -3.78211 -38.51363 562 ft 108 kts 104°
2026-04-26 17:47 -3.78284 -38.51120 614 ft 108 kts 105°
2026-04-26 17:47 -3.78689 -38.49886 663 ft 117 kts 107°
2026-04-26 17:47 -3.78942 -38.49092 769 ft 124 kts 105°
2026-04-26 17:48 -3.79148 -38.48246 916 ft 125 kts 103°
2026-04-26 17:48 -3.79333 -38.47413 1083 ft 122 kts 102°
2026-04-26 17:48 -3.79540 -38.46578 1230 ft 127 kts 105°
2026-04-26 17:48 -3.79774 -38.45709 1372 ft 131 kts 106°
2026-04-26 17:49 -3.80018 -38.44822 1503 ft 135 kts 106°
2026-04-26 17:49 -3.80271 -38.43910 1634 ft 135 kts 107°
2026-04-26 17:49 -3.80524 -38.43002 1757 ft 136 kts 107°
2026-04-26 17:49 -3.80783 -38.42078 1885 ft 140 kts 108°
2026-04-26 17:50 -3.81075 -38.41138 2003 ft 141 kts 116°
2026-04-26 17:50 -3.81697 -38.40428 2124 ft 136 kts 155°
2026-04-26 17:50 -3.82627 -38.40348 2253 ft 139 kts 194°
2026-04-26 17:50 -3.83467 -38.40810 2379 ft 140 kts 211°
2026-04-26 17:51 -3.84296 -38.41326 2505 ft 140 kts 209°
2026-04-26 17:51 -3.85128 -38.41839 2633 ft 141 kts 209°
2026-04-26 17:51 -3.85963 -38.42358 2749 ft 141 kts 209°
2026-04-26 17:51 -3.86796 -38.42875 2863 ft 140 kts 209°
2026-04-26 17:52 -3.87631 -38.43391 3000 ft 141 kts 209°
2026-04-26 17:52 -3.88465 -38.43908 3119 ft 141 kts 209°
2026-04-26 17:52 -3.89284 -38.44417 3241 ft 139 kts 208°
2026-04-26 17:52 -3.90111 -38.44927 3351 ft 139 kts 209°
2026-04-26 17:53 -3.90927 -38.45431 3473 ft 138 kts 208°
2026-04-26 17:53 -3.91747 -38.45934 3594 ft 138 kts 206°
2026-04-26 17:53 -3.92568 -38.46461 3716 ft 142 kts 211°
2026-04-26 17:54 -3.94266 -38.47499 3967 ft 145 kts 208°
2026-04-26 17:54 -3.95125 -38.48027 4096 ft 145 kts 208°
2026-04-26 17:54 -3.95984 -38.48562 4207 ft 145 kts 209°
2026-04-26 17:54 -3.96793 -38.49149 4330 ft 146 kts 225°
2026-04-26 17:55 -3.97168 -38.50100 4447 ft 151 kts 258°
2026-04-26 17:55 -3.97314 -38.51113 4568 ft 148 kts 256°
2026-04-26 17:55 -3.97501 -38.52121 4687 ft 146 kts 256°
2026-04-26 17:55 -3.97693 -38.53122 4804 ft 146 kts 255°
2026-04-26 17:56 -3.97885 -38.54122 4926 ft 146 kts 255°
2026-04-26 17:56 -3.98274 -38.56116 5156 ft 145 kts 255°
2026-04-26 17:57 -3.98661 -38.58099 5404 ft 144 kts 255°
2026-04-26 17:57 -3.98853 -38.59091 5521 ft 145 kts 254°
2026-04-26 17:57 -3.99048 -38.60081 5643 ft 145 kts 254°
2026-04-26 17:57 -3.99238 -38.61065 5761 ft 146 kts 255°
2026-04-26 17:58 -3.99824 -38.64080 6122 ft 148 kts 255°
2026-04-26 17:59 -4.00228 -38.66147 6280 ft 154 kts 255°
2026-04-26 17:59 -4.00434 -38.67197 6350 ft 153 kts 257°
2026-04-26 17:59 -4.00634 -38.68245 6416 ft 153 kts 256°
2026-04-26 17:59 -4.00839 -38.69291 6489 ft 153 kts 256°
2026-04-26 18:00 -4.00975 -38.69988 6535 ft 154 kts 256°
2026-04-26 18:00 -4.01250 -38.71395 6629 ft 156 kts 257°
2026-04-26 18:00 -4.01455 -38.72461 6705 ft 156 kts 256°
2026-04-26 18:00 -4.01663 -38.73529 6772 ft 156 kts 256°
2026-04-26 18:01 -4.01802 -38.74240 6819 ft 157 kts 256°
2026-04-26 18:01 -4.02012 -38.75317 6891 ft 158 kts 256°
2026-04-26 18:01 -4.02224 -38.76399 6962 ft 158 kts 257°
2026-04-26 18:01 -4.02433 -38.77485 7034 ft 159 kts 257°
2026-04-26 18:02 -4.02643 -38.78575 7107 ft 160 kts 257°
2026-04-26 18:02 -4.02783 -38.79301 7151 ft 160 kts 257°
2026-04-26 18:02 -4.03066 -38.80759 7240 ft 159 kts 257°
2026-04-26 18:02 -4.03276 -38.81845 7317 ft 159 kts 257°
2026-04-26 18:03 -4.03483 -38.82921 7387 ft 159 kts 256°
2026-04-26 18:03 -4.03695 -38.84015 7459 ft 160 kts 256°
2026-04-26 18:03 -4.03906 -38.85108 7533 ft 160 kts 257°
2026-04-26 18:03 -4.04117 -38.86200 7606 ft 160 kts 257°
2026-04-26 18:04 -4.04327 -38.87295 7675 ft 160 kts 258°
2026-04-26 18:04 -4.04537 -38.88380 7742 ft 160 kts 257°
2026-04-26 18:04 -4.04750 -38.89473 7810 ft 160 kts 256°
2026-04-26 18:05 -4.05170 -38.91660 7953 ft 160 kts 257°
2026-04-26 18:05 -4.05332 -38.92762 8025 ft 160 kts 262°
2026-04-26 18:05 -4.05475 -38.93868 8100 ft 160 kts 259°
2026-04-26 18:05 -4.05636 -38.94977 8173 ft 161 kts 260°
2026-04-26 18:06 -4.05786 -38.96086 8250 ft 160 kts 261°
2026-04-26 18:06 -4.05932 -38.97192 8323 ft 160 kts 262°
2026-04-26 18:06 -4.06075 -38.98286 8392 ft 160 kts 261°
2026-04-26 18:06 -4.06221 -38.99391 8465 ft 160 kts 261°
2026-04-26 18:07 -4.06368 -39.00497 8535 ft 160 kts 262°
2026-04-26 18:07 -4.06512 -39.01601 8610 ft 160 kts 262°
2026-04-26 18:07 -4.06657 -39.02706 8682 ft 160 kts 261°
2026-04-26 18:07 -4.06755 -39.03438 8728 ft 160 kts 262°
2026-04-26 18:08 -4.06949 -39.04915 8832 ft 159 kts 262°
2026-04-26 18:08 -4.07094 -39.06015 8904 ft 159 kts 262°
2026-04-26 18:08 -4.07238 -39.07111 8978 ft 159 kts 262°
2026-04-26 18:08 -4.07382 -39.08205 9048 ft 159 kts 261°
2026-04-26 18:09 -4.07526 -39.09299 9121 ft 158 kts 261°
2026-04-26 18:09 -4.07669 -39.10379 9194 ft 158 kts 262°
2026-04-26 18:09 -4.07813 -39.11474 9270 ft 158 kts 262°
2026-04-26 18:09 -4.07956 -39.12565 9348 ft 158 kts 262°
2026-04-26 18:10 -4.08099 -39.13658 9417 ft 158 kts 262°
2026-04-26 18:10 -4.08243 -39.14750 9493 ft 158 kts 262°
2026-04-26 18:10 -4.08387 -39.15843 9568 ft 158 kts 262°
2026-04-26 18:10 -4.08530 -39.16934 9642 ft 158 kts 262°
2026-04-26 18:11 -4.08674 -39.18026 9723 ft 158 kts 262°
2026-04-26 18:11 -4.08817 -39.19112 9794 ft 157 kts 262°
2026-04-26 18:11 -4.08958 -39.20184 9868 ft 157 kts 262°
2026-04-26 18:11 -4.09102 -39.21281 9874 ft 160 kts 262°
2026-04-26 18:12 -4.09248 -39.22399 9875 ft 163 kts 262°
2026-04-26 18:12 -4.09396 -39.23537 9880 ft 165 kts 262°
2026-04-26 18:12 -4.09547 -39.24685 9885 ft 167 kts 262°
2026-04-26 18:12 -4.09699 -39.25844 9885 ft 168 kts 262°
2026-04-26 18:13 -4.09852 -39.27014 9882 ft 170 kts 262°
2026-04-26 18:13 -4.10004 -39.28177 9885 ft 171 kts 262°
2026-04-26 18:13 -4.10160 -39.29362 9885 ft 172 kts 262°
2026-04-26 18:13 -4.10266 -39.30169 9884 ft 173 kts 262°
2026-04-26 18:14 -4.10473 -39.31755 9880 ft 174 kts 262°
2026-04-26 18:14 -4.10631 -39.32953 9880 ft 173 kts 262°
2026-04-26 18:14 -4.10788 -39.34153 9881 ft 174 kts 262°
2026-04-26 18:14 -4.10946 -39.35353 9881 ft 174 kts 262°
2026-04-26 18:15 -4.11104 -39.36561 9884 ft 174 kts 262°
2026-04-26 18:15 -4.11261 -39.37762 9883 ft 174 kts 262°
2026-04-26 18:15 -4.11420 -39.38963 9882 ft 174 kts 262°
2026-04-26 18:15 -4.11577 -39.40163 9880 ft 174 kts 262°
2026-04-26 18:16 -4.11729 -39.41315 9897 ft 157 kts 262°
2026-04-26 18:16 -4.11919 -39.42936 9762 ft 108 kts 266°
2026-04-26 18:16 -4.12015 -39.43682 9633 ft 102 kts 259°
2026-04-26 18:17 -4.12119 -39.44333 9655 ft 88 kts 260°
2026-04-26 18:17 -4.12208 -39.44921 9678 ft 84 kts 261°
2026-04-26 18:17 -4.12290 -39.45493 9655 ft 81 kts 262°
2026-04-26 18:17 -4.12382 -39.46041 9547 ft 87 kts 259°
2026-04-26 18:18 -4.12485 -39.46715 9306 ft 109 kts 263°
2026-04-26 18:18 -4.12542 -39.47531 9016 ft 120 kts 265°
2026-04-26 18:18 -4.12552 -39.48373 8699 ft 129 kts 277°
2026-04-26 18:18 -4.12402 -39.49266 8407 ft 126 kts 272°
2026-04-26 18:19 -4.12304 -39.50253 8138 ft 153 kts 277°
2026-04-26 18:19 -4.12273 -39.51275 8333 ft 144 kts 254°
2026-04-26 18:19 -4.12769 -39.52111 8462 ft 140 kts 229°
2026-04-26 18:19 -4.13229 -39.52971 8590 ft 145 kts 255°
2026-04-26 18:20 -4.13385 -39.53988 8726 ft 146 kts 261°
2026-04-26 18:20 -4.13523 -39.54979 8852 ft 145 kts 262°
2026-04-26 18:20 -4.13654 -39.55979 8979 ft 144 kts 262°
2026-04-26 18:20 -4.13743 -39.56654 9062 ft 144 kts 262°
2026-04-26 18:21 -4.13915 -39.57972 9227 ft 144 kts 262°
2026-04-26 18:21 -4.14047 -39.58965 9349 ft 143 kts 262°
2026-04-26 18:21 -4.14176 -39.59956 9475 ft 143 kts 262°
2026-04-26 18:21 -4.14306 -39.60943 9592 ft 143 kts 262°
2026-04-26 18:22 -4.14433 -39.61926 9712 ft 142 kts 262°
2026-04-26 18:22 -4.14560 -39.62891 9828 ft 141 kts 262°
2026-04-26 18:22 -4.14689 -39.63877 9878 ft 146 kts 262°
2026-04-26 18:22 -4.14821 -39.64911 9893 ft 153 kts 262°
2026-04-26 18:23 -4.14961 -39.65991 9891 ft 159 kts 262°
2026-04-26 18:23 -4.15106 -39.67109 9891 ft 164 kts 262°
2026-04-26 18:23 -4.15257 -39.68259 9893 ft 168 kts 262°
2026-04-26 18:23 -4.15410 -39.69428 9887 ft 171 kts 262°
2026-04-26 18:24 -4.15565 -39.70615 9891 ft 172 kts 262°
2026-04-26 18:24 -4.15722 -39.71814 9889 ft 175 kts 262°
2026-04-26 18:24 -4.15877 -39.73010 9891 ft 176 kts 262°
2026-04-26 18:24 -4.16036 -39.74230 9890 ft 177 kts 262°
2026-04-26 18:25 -4.16197 -39.75458 9888 ft 178 kts 262°
2026-04-26 18:25 -4.16358 -39.76690 9887 ft 179 kts 262°
2026-04-26 18:25 -4.16520 -39.77924 9886 ft 178 kts 262°
2026-04-26 18:25 -4.16678 -39.79136 9887 ft 178 kts 262°
2026-04-26 18:26 -4.16838 -39.80363 9887 ft 177 kts 262°
2026-04-26 18:26 -4.16999 -39.81591 9885 ft 178 kts 262°
2026-04-26 18:26 -4.17158 -39.82817 9886 ft 177 kts 262°
2026-04-26 18:26 -4.17366 -39.84033 9882 ft 177 kts 253°
2026-04-26 18:27 -4.17737 -39.85212 9881 ft 177 kts 252°
2026-04-26 18:27 -4.18094 -39.86392 9884 ft 176 kts 253°
2026-04-26 18:27 -4.18447 -39.87572 9883 ft 177 kts 253°
2026-04-26 18:27 -4.18801 -39.88752 9884 ft 176 kts 253°
2026-04-26 18:28 -4.19155 -39.89929 9885 ft 176 kts 253°
2026-04-26 18:28 -4.19505 -39.91094 9883 ft 177 kts 252°
2026-04-26 18:28 -4.19860 -39.92276 9882 ft 177 kts 253°
2026-04-26 18:28 -4.20215 -39.93458 9882 ft 177 kts 253°
2026-04-26 18:29 -4.20569 -39.94639 9878 ft 177 kts 252°
2026-04-26 18:29 -4.20924 -39.95818 9878 ft 176 kts 252°
2026-04-26 18:29 -4.21279 -39.96993 9874 ft 176 kts 252°
2026-04-26 18:29 -4.21626 -39.98149 9872 ft 175 kts 253°
2026-04-26 18:30 -4.21975 -39.99313 9875 ft 174 kts 253°
2026-04-26 18:30 -4.22323 -40.00472 9874 ft 174 kts 253°
2026-04-26 18:30 -4.22672 -40.01632 9872 ft 174 kts 253°
2026-04-26 18:30 -4.23019 -40.02791 9874 ft 173 kts 253°
2026-04-26 18:31 -4.23364 -40.03941 9875 ft 172 kts 253°
2026-04-26 18:31 -4.23708 -40.05084 9874 ft 171 kts 253°
2026-04-26 18:31 -4.24046 -40.06213 9871 ft 171 kts 252°
2026-04-26 18:31 -4.24389 -40.07353 9870 ft 171 kts 253°
2026-04-26 18:32 -4.24731 -40.08494 9873 ft 171 kts 253°
2026-04-26 18:32 -4.25074 -40.09633 9873 ft 171 kts 253°
2026-04-26 18:32 -4.25415 -40.10773 9871 ft 170 kts 253°
2026-04-26 18:32 -4.25757 -40.11913 9869 ft 170 kts 252°
2026-04-26 18:33 -4.26098 -40.13051 9867 ft 170 kts 252°
2026-04-26 18:33 -4.26435 -40.14173 9864 ft 170 kts 253°
2026-04-26 18:33 -4.26778 -40.15316 9866 ft 171 kts 252°
2026-04-26 18:33 -4.27121 -40.16459 9868 ft 171 kts 253°
2026-04-26 18:34 -4.27463 -40.17601 9868 ft 171 kts 253°
2026-04-26 18:34 -4.27804 -40.18739 9866 ft 170 kts 252°
2026-04-26 18:34 -4.28141 -40.19861 9867 ft 170 kts 253°
2026-04-26 18:34 -4.28487 -40.21012 9861 ft 170 kts 253°
2026-04-26 18:35 -4.28822 -40.22133 9863 ft 170 kts 253°
2026-04-26 18:35 -4.29163 -40.23269 9864 ft 170 kts 253°
2026-04-26 18:35 -4.29503 -40.24403 9862 ft 170 kts 252°
2026-04-26 18:35 -4.29843 -40.25536 9863 ft 170 kts 253°
2026-04-26 18:36 -4.30182 -40.26667 9865 ft 169 kts 252°
2026-04-26 18:36 -4.30520 -40.27797 9869 ft 169 kts 253°
2026-04-26 18:36 -4.30859 -40.28927 9869 ft 169 kts 253°
2026-04-26 18:36 -4.31198 -40.30058 9865 ft 169 kts 252°
2026-04-26 18:37 -4.31532 -40.31171 9867 ft 169 kts 253°
2026-04-26 18:37 -4.31870 -40.32298 9868 ft 169 kts 253°
2026-04-26 18:37 -4.32208 -40.33426 9866 ft 169 kts 253°
2026-04-26 18:37 -4.32546 -40.34554 9867 ft 169 kts 253°
2026-04-26 18:38 -4.32884 -40.35683 9865 ft 169 kts 253°
2026-04-26 18:38 -4.33222 -40.36811 9866 ft 169 kts 253°
2026-04-26 18:38 -4.33559 -40.37937 9865 ft 169 kts 253°
2026-04-26 18:38 -4.33897 -40.39064 9868 ft 169 kts 253°
2026-04-26 18:39 -4.34235 -40.40191 9868 ft 169 kts 253°
2026-04-26 18:39 -4.34569 -40.41305 9866 ft 169 kts 253°
2026-04-26 18:39 -4.34907 -40.42434 9868 ft 169 kts 253°
2026-04-26 18:39 -4.35244 -40.43561 9866 ft 169 kts 253°
2026-04-26 18:40 -4.35584 -40.44693 9867 ft 170 kts 253°
2026-04-26 18:40 -4.35924 -40.45827 9865 ft 170 kts 253°
2026-04-26 18:40 -4.36264 -40.46965 9868 ft 170 kts 253°
2026-04-26 18:40 -4.36605 -40.48104 9875 ft 170 kts 253°
2026-04-26 18:41 -4.36945 -40.49241 9877 ft 170 kts 253°
2026-04-26 18:41 -4.37284 -40.50374 9878 ft 170 kts 253°
2026-04-26 18:41 -4.37620 -40.51495 9876 ft 170 kts 253°
2026-04-26 18:41 -4.37959 -40.52628 9878 ft 169 kts 253°
2026-04-26 18:42 -4.38299 -40.53764 9871 ft 169 kts 253°
2026-04-26 18:42 -4.38638 -40.54893 9872 ft 169 kts 253°
2026-04-26 18:42 -4.38976 -40.56021 9871 ft 169 kts 253°
2026-04-26 18:42 -4.39310 -40.57138 9874 ft 169 kts 253°
2026-04-26 18:43 -4.39647 -40.58267 9880 ft 169 kts 253°
2026-04-26 18:43 -4.39985 -40.59396 9877 ft 169 kts 253°
2026-04-26 18:43 -4.40324 -40.60525 9879 ft 169 kts 253°
2026-04-26 18:43 -4.40661 -40.61654 9877 ft 169 kts 253°
2026-04-26 18:44 -4.40999 -40.62782 9882 ft 169 kts 253°
2026-04-26 18:44 -4.41336 -40.63909 9883 ft 169 kts 253°
2026-04-26 18:44 -4.41674 -40.65039 9882 ft 169 kts 253°
2026-04-26 18:44 -4.42012 -40.66169 9883 ft 169 kts 253°
2026-04-26 18:45 -4.42350 -40.67299 9884 ft 169 kts 253°
2026-04-26 18:45 -4.42688 -40.68428 9885 ft 169 kts 253°
2026-04-26 18:45 -4.43026 -40.69560 9884 ft 170 kts 253°
2026-04-26 18:45 -4.43366 -40.70697 9884 ft 170 kts 253°
2026-04-26 18:46 -4.43706 -40.71838 9891 ft 171 kts 253°
2026-04-26 18:46 -4.44046 -40.72970 9893 ft 172 kts 253°
2026-04-26 18:46 -4.44390 -40.74120 9893 ft 172 kts 253°
2026-04-26 18:46 -4.44733 -40.75270 9892 ft 171 kts 253°
2026-04-26 18:47 -4.45076 -40.76414 9891 ft 171 kts 253°
2026-04-26 18:47 -4.45417 -40.77555 9891 ft 171 kts 253°
2026-04-26 18:47 -4.45758 -40.78697 9890 ft 171 kts 253°
2026-04-26 18:47 -4.46099 -40.79837 9888 ft 171 kts 253°
2026-04-26 18:48 -4.46440 -40.80975 9887 ft 170 kts 253°
2026-04-26 18:48 -4.46775 -40.82098 9886 ft 170 kts 253°
2026-04-26 18:48 -4.47115 -40.83235 9884 ft 170 kts 252°
2026-04-26 18:48 -4.47454 -40.84366 9883 ft 170 kts 253°
2026-04-26 18:49 -4.47793 -40.85503 9888 ft 169 kts 252°
2026-04-26 18:49 -4.48131 -40.86635 9886 ft 169 kts 253°
2026-04-26 18:49 -4.48355 -40.87383 9887 ft 169 kts 253°
2026-04-26 18:49 -4.48807 -40.88898 9886 ft 169 kts 253°
2026-04-26 18:50 -4.49032 -40.89650 9886 ft 169 kts 253°
2026-04-26 18:50 -4.49481 -40.91149 9883 ft 170 kts 253°
2026-04-26 18:50 -4.49709 -40.91914 9884 ft 170 kts 253°
2026-04-26 18:50 -4.50049 -40.93051 9879 ft 170 kts 253°
2026-04-26 18:51 -4.50388 -40.94187 9884 ft 170 kts 253°
2026-04-26 18:51 -4.50725 -40.95314 9883 ft 171 kts 253°
2026-04-26 18:51 -4.51066 -40.96460 9881 ft 171 kts 252°
2026-04-26 18:51 -4.51409 -40.97606 9885 ft 172 kts 252°
2026-04-26 18:52 -4.51751 -40.98749 9885 ft 171 kts 253°
2026-04-26 18:52 -4.52092 -40.99893 9884 ft 171 kts 252°
2026-04-26 18:52 -4.52432 -41.01033 9886 ft 171 kts 252°
2026-04-26 18:52 -4.52774 -41.02177 9885 ft 172 kts 252°
2026-04-26 18:53 -4.53118 -41.03324 9886 ft 172 kts 252°
2026-04-26 18:53 -4.53456 -41.04459 9888 ft 172 kts 252°
2026-04-26 18:53 -4.53798 -41.05608 9889 ft 172 kts 253°
2026-04-26 18:53 -4.54140 -41.06753 9888 ft 172 kts 253°
2026-04-26 18:54 -4.54482 -41.07900 9883 ft 172 kts 252°
2026-04-26 18:54 -4.54826 -41.09050 9884 ft 172 kts 253°
2026-04-26 18:54 -4.55169 -41.10198 9885 ft 172 kts 253°
2026-04-26 18:54 -4.55511 -41.11346 9885 ft 171 kts 253°
2026-04-26 18:55 -4.55848 -41.12476 9880 ft 171 kts 252°
2026-04-26 18:55 -4.56191 -41.13622 9881 ft 171 kts 253°
2026-04-26 18:55 -4.56532 -41.14767 9879 ft 171 kts 252°
2026-04-26 18:55 -4.56874 -41.15912 9879 ft 172 kts 253°
2026-04-26 18:56 -4.57216 -41.17059 9881 ft 172 kts 253°
2026-04-26 18:56 -4.57558 -41.18207 9877 ft 172 kts 252°
2026-04-26 18:56 -4.57902 -41.19356 9878 ft 172 kts 253°
2026-04-26 18:56 -4.58244 -41.20507 9876 ft 172 kts 252°
2026-04-26 18:57 -4.58588 -41.21657 9877 ft 172 kts 252°
2026-04-26 18:57 -4.58815 -41.22419 9871 ft 172 kts 253°
2026-04-26 18:57 -4.59271 -41.23949 9873 ft 172 kts 253°
2026-04-26 18:57 -4.59619 -41.25114 9871 ft 172 kts 252°
2026-04-26 18:58 -4.59959 -41.26252 9869 ft 172 kts 253°
2026-04-26 18:58 -4.60303 -41.27407 9871 ft 173 kts 253°
2026-04-26 18:58 -4.60647 -41.28560 9872 ft 172 kts 253°
2026-04-26 18:58 -4.60990 -41.29712 9872 ft 172 kts 253°
2026-04-26 18:59 -4.61332 -41.30862 9869 ft 172 kts 252°
2026-04-26 18:59 -4.61676 -41.32013 9870 ft 172 kts 253°
2026-04-26 18:59 -4.62020 -41.33166 9870 ft 173 kts 253°
2026-04-26 18:59 -4.62360 -41.34306 9869 ft 173 kts 253°
2026-04-26 19:00 -4.62588 -41.35075 9869 ft 173 kts 253°
2026-04-26 19:00 -4.63051 -41.36623 9871 ft 173 kts 252°
2026-04-26 19:00 -4.63396 -41.37784 9871 ft 174 kts 252°
2026-04-26 19:00 -4.63738 -41.38933 9871 ft 174 kts 252°
2026-04-26 19:01 -4.64084 -41.40096 9873 ft 174 kts 252°
2026-04-26 19:01 -4.64432 -41.41261 9875 ft 175 kts 252°
2026-04-26 19:01 -4.64779 -41.42427 9876 ft 174 kts 252°
2026-04-26 19:01 -4.65127 -41.43594 9874 ft 175 kts 253°
2026-04-26 19:02 -4.65474 -41.44760 9873 ft 174 kts 253°
2026-04-26 19:02 -4.65821 -41.45926 9871 ft 174 kts 253°
2026-04-26 19:02 -4.66168 -41.47089 9872 ft 173 kts 253°
2026-04-26 19:02 -4.66396 -41.47855 9871 ft 173 kts 253°
2026-04-26 19:03 -4.66857 -41.49403 9874 ft 173 kts 253°
2026-04-26 19:03 -4.67199 -41.50548 9874 ft 174 kts 252°
2026-04-26 19:03 -4.67545 -41.51710 9875 ft 174 kts 253°
2026-04-26 19:03 -4.67889 -41.52870 9868 ft 174 kts 253°
2026-04-26 19:04 -4.68235 -41.54031 9860 ft 174 kts 252°
2026-04-26 19:04 -4.68582 -41.55195 9862 ft 174 kts 252°
2026-04-26 19:04 -4.68930 -41.56364 9862 ft 175 kts 252°
2026-04-26 19:04 -4.69277 -41.57528 9864 ft 174 kts 252°
2026-04-26 19:05 -4.69966 -41.59847 9869 ft 173 kts 252°
2026-04-26 19:05 -4.70311 -41.61004 9862 ft 173 kts 252°
2026-04-26 19:05 -4.70657 -41.62164 9863 ft 173 kts 253°
2026-04-26 19:06 -4.70999 -41.63315 9863 ft 172 kts 253°
2026-04-26 19:06 -4.71337 -41.64453 9863 ft 172 kts 253°
2026-04-26 19:06 -4.71681 -41.65607 9862 ft 173 kts 253°
2026-04-26 19:06 -4.72025 -41.66764 9862 ft 173 kts 252°
2026-04-26 19:07 -4.72372 -41.67928 9863 ft 174 kts 252°
2026-04-26 19:07 -4.72717 -41.69089 9864 ft 173 kts 253°
2026-04-26 19:07 -4.73061 -41.70248 9862 ft 173 kts 252°
2026-04-26 19:07 -4.73406 -41.71405 9862 ft 173 kts 252°
2026-04-26 19:08 -4.73751 -41.72563 9861 ft 173 kts 252°
2026-04-26 19:08 -4.74092 -41.73709 9860 ft 173 kts 252°
2026-04-26 19:08 -4.74438 -41.74867 9860 ft 174 kts 253°
2026-04-26 19:08 -4.74783 -41.76026 9861 ft 173 kts 253°
2026-04-26 19:09 -4.75128 -41.77183 9863 ft 173 kts 253°
2026-04-26 19:09 -4.75474 -41.78342 9860 ft 173 kts 252°
2026-04-26 19:09 -4.75819 -41.79502 9860 ft 173 kts 252°
2026-04-26 19:09 -4.76165 -41.80658 9861 ft 173 kts 252°
2026-04-26 19:10 -4.76504 -41.81798 9861 ft 173 kts 253°
2026-04-26 19:10 -4.76848 -41.82953 9860 ft 173 kts 252°
2026-04-26 19:10 -4.77193 -41.84106 9856 ft 173 kts 252°
2026-04-26 19:10 -4.77538 -41.85262 9859 ft 172 kts 252°
2026-04-26 19:11 -4.77880 -41.86415 9855 ft 172 kts 252°
2026-04-26 19:11 -4.78223 -41.87566 9854 ft 172 kts 252°
2026-04-26 19:11 -4.78568 -41.88722 9854 ft 173 kts 252°
2026-04-26 19:11 -4.78914 -41.89880 9854 ft 173 kts 252°
2026-04-26 19:12 -4.79260 -41.91041 9858 ft 173 kts 252°
2026-04-26 19:12 -4.79600 -41.92187 9857 ft 174 kts 252°
2026-04-26 19:12 -4.79948 -41.93348 9857 ft 173 kts 252°
2026-04-26 19:12 -4.80291 -41.94510 9848 ft 173 kts 252°
2026-04-26 19:13 -4.80638 -41.95668 9850 ft 174 kts 252°
2026-04-26 19:13 -4.80983 -41.96824 9852 ft 173 kts 252°
2026-04-26 19:13 -4.81326 -41.97982 9851 ft 173 kts 252°
2026-04-26 19:13 -4.81673 -41.99144 9850 ft 173 kts 252°
2026-04-26 19:14 -4.82013 -42.00284 9850 ft 173 kts 252°
2026-04-26 19:14 -4.82355 -42.01437 9852 ft 172 kts 251°
2026-04-26 19:14 -4.82700 -42.02591 9835 ft 174 kts 251°
2026-04-26 19:14 -4.82937 -42.03386 9757 ft 178 kts 252°
2026-04-26 19:15 -4.83414 -42.04998 9603 ft 184 kts 252°
2026-04-26 19:15 -4.83781 -42.06237 9485 ft 187 kts 252°
2026-04-26 19:15 -4.84156 -42.07495 9363 ft 189 kts 251°
2026-04-26 19:15 -4.84533 -42.08761 9241 ft 190 kts 252°
2026-04-26 19:16 -4.84911 -42.10031 9117 ft 190 kts 252°
2026-04-26 19:16 -4.85284 -42.11285 8996 ft 190 kts 251°
2026-04-26 19:16 -4.85663 -42.12558 8873 ft 191 kts 252°
2026-04-26 19:16 -4.86042 -42.13833 8753 ft 190 kts 252°
2026-04-26 19:17 -4.86419 -42.15104 8628 ft 190 kts 252°
2026-04-26 19:17 -4.86797 -42.16374 8505 ft 190 kts 252°
2026-04-26 19:17 -4.87176 -42.17647 8380 ft 190 kts 251°
2026-04-26 19:17 -4.87554 -42.18917 8259 ft 190 kts 252°
2026-04-26 19:18 -4.87925 -42.20189 8135 ft 189 kts 252°
2026-04-26 19:18 -4.88291 -42.21458 8011 ft 189 kts 252°
2026-04-26 19:18 -4.88657 -42.22714 7892 ft 189 kts 252°
2026-04-26 19:18 -4.89027 -42.23982 7771 ft 190 kts 252°
2026-04-26 19:19 -4.89397 -42.25251 7657 ft 190 kts 252°
2026-04-26 19:19 -4.89767 -42.26523 7534 ft 190 kts 252°
2026-04-26 19:19 -4.90137 -42.27795 7415 ft 190 kts 252°
2026-04-26 19:19 -4.90508 -42.29066 7291 ft 189 kts 252°
2026-04-26 19:20 -4.90877 -42.30333 7177 ft 189 kts 252°
2026-04-26 19:20 -4.91120 -42.31172 7097 ft 189 kts 252°
2026-04-26 19:20 -4.91611 -42.32857 6940 ft 188 kts 252°
2026-04-26 19:20 -4.91972 -42.34096 6822 ft 188 kts 252°
2026-04-26 19:21 -4.92338 -42.35352 6706 ft 187 kts 252°
2026-04-26 19:21 -4.92703 -42.36604 6590 ft 187 kts 252°
2026-04-26 19:21 -4.93068 -42.37861 6470 ft 188 kts 252°
2026-04-26 19:21 -4.93435 -42.39119 6358 ft 188 kts 252°
2026-04-26 19:22 -4.93801 -42.40379 6229 ft 188 kts 252°
2026-04-26 19:22 -4.94163 -42.41620 6117 ft 188 kts 252°
2026-04-26 19:22 -4.94528 -42.42876 5996 ft 187 kts 252°
2026-04-26 19:22 -4.94893 -42.44132 5868 ft 187 kts 251°
2026-04-26 19:23 -4.95258 -42.45384 5751 ft 187 kts 252°
2026-04-26 19:23 -4.95622 -42.46637 5627 ft 187 kts 252°
2026-04-26 19:23 -4.95985 -42.47884 5505 ft 186 kts 252°
2026-04-26 19:23 -4.96346 -42.49126 5386 ft 185 kts 252°
2026-04-26 19:24 -4.96706 -42.50365 5262 ft 185 kts 251°
2026-04-26 19:24 -4.97068 -42.51605 5141 ft 185 kts 252°
2026-04-26 19:24 -4.97787 -42.54082 4903 ft 185 kts 252°
2026-04-26 19:25 -4.98144 -42.55309 4783 ft 186 kts 251°
2026-04-26 19:25 -4.98267 -42.55732 4741 ft 186 kts 251°
2026-04-26 19:25 -4.98869 -42.57804 4540 ft 186 kts 252°
2026-04-26 19:25 -4.99231 -42.59047 4416 ft 185 kts 252°
2026-04-26 19:26 -4.99591 -42.60286 4295 ft 185 kts 252°
2026-04-26 19:26 -4.99951 -42.61524 4171 ft 185 kts 252°
2026-04-26 19:26 -5.00309 -42.62760 4054 ft 184 kts 252°
2026-04-26 19:26 -5.00669 -42.63996 3925 ft 183 kts 252°
2026-04-26 19:27 -5.01024 -42.65218 3806 ft 182 kts 252°
2026-04-26 19:27 -5.01373 -42.66423 3687 ft 182 kts 252°
2026-04-26 19:27 -5.01728 -42.67641 3568 ft 181 kts 252°
2026-04-26 19:27 -5.02082 -42.68854 3442 ft 180 kts 252°
2026-04-26 19:28 -5.02433 -42.70064 3321 ft 180 kts 252°
2026-04-26 19:28 -5.02782 -42.71267 3204 ft 180 kts 252°
2026-04-26 19:28 -5.03132 -42.72468 3080 ft 178 kts 252°
2026-04-26 19:28 -5.03492 -42.73643 2949 ft 178 kts 249°
2026-04-26 19:29 -5.04041 -42.74769 2703 ft 179 kts 235°
2026-04-26 19:29 -5.04772 -42.75772 2446 ft 174 kts 229°
2026-04-26 19:29 -5.05593 -42.76649 2168 ft 171 kts 216°
2026-04-26 19:29 -5.06562 -42.77304 1991 ft 165 kts 209°
2026-04-26 19:30 -5.07487 -42.77947 1722 ft 156 kts 221°
2026-04-26 19:30 -5.08060 -42.78811 1419 ft 143 kts 243°
2026-04-26 19:30 -5.08387 -42.79726 1165 ft 130 kts 250°
2026-04-26 19:30 -5.08544 -42.80286 1175 ft 128 kts 251°
2026-04-26 19:31 -5.08678 -42.81391 893 ft 118 kts 291°
2026-04-26 19:31 -5.08086 -42.81891 649 ft 111 kts 329°
2026-04-26 19:31 -5.07441 -42.82221 384 ft 99 kts 347°
2026-04-26 19:31 -5.06801 -42.82293 213 ft 85 kts 358°
2026-04-26 19:32 -5.06379 -42.82336 215 ft 24 kts 351°
2026-04-26 19:32 -5.06354 -42.82325 215 ft 0 kts 112°
2026-04-26 19:32 -5.06356 -42.82322 215 ft 4 kts 121°
2026-04-26 19:32 -5.06366 -42.82248 218 ft 14 kts 92°
2026-04-26 19:33 -5.06418 -42.82207 213 ft 9 kts 173°
2026-04-26 19:33 -5.06490 -42.82199 213 ft 13 kts 174°
2026-04-26 19:33 -5.06545 -42.82165 213 ft 11 kts 96°
2026-04-26 19:33 -5.06544 -42.82128 212 ft 0 kts 87°